Location: Bennemühlen
(52.5740°N, 9.7135°E)
Time: 13:08:10
(UTC+00:00)

A-11 Canister half - Pass Details

Date: 25 February 2026
Orbit: 1513 x 1686 km, 47.2° (Epoch: 17 March)

Event Time Altitude Azimuth Distance (km) Brightness Sun altitude
Rises 02:27:16 0° 284° (WNW) 4,880 - -34.3°
Reaches altitude 10° 02:33:01 10° 258° (WSW) 3,848 - -33.5°
Maximum altitude 02:36:31 12° 237° (WSW) 3,623 - -33.1°
Drops below altitude 10° 02:40:00 10° 215° (SW) 3,790 - -32.6°
Sets 02:45:36 0° 189° (S) 4,728 - -31.9°
